When you browse on this site, cookies collect data to enhance your experience and personalize the content and advertising you see.
Visit our Privacy Policy to learn more. By continuing to use the site, you agree to this use of cookies and data.
  • In Lithuania
  • List of Countries
  • For 7 days
  • Water Temperature
  • Satellite Maps
  • Weather Map
  • Weather Widgets
  • user-avatar
    Login

    Hourly Weather Ezhiki

    Today, 25 April, Thursday

    Time Temperature Precipitation Wind Pressure Humidity
    00:00 +10°C° 0 mm 5 mps 753 mmHg 65%
    01:00 +10°C° 0 mm 5 mps 753 mmHg 66%
    02:00 +10°C° 0 mm 4 mps 753 mmHg 68%
    03:00 +10°C° 0 mm 4 mps 752 mmHg 69%
    04:00 +10°C° 0 mm 4 mps 752 mmHg 70%
    05:00 +8°C° 0 mm 4 mps 752 mmHg 71%
    06:00 +9°C° 0 mm 5 mps 752 mmHg 69%
    07:00 +10°C° 0 mm 5 mps 752 mmHg 68%
    08:00 +12°C° 0 mm 5 mps 752 mmHg 66%
    09:00 +14°C° 0 mm 5 mps 752 mmHg 63%
    10:00 +16°C° 0 mm 5 mps 752 mmHg 60%
    11:00 +19°C° 0 mm 5 mps 752 mmHg 57%
    12:00 +20°C° 0 mm 5 mps 752 mmHg 54%
    13:00 +21°C° 0 mm 6 mps 751 mmHg 52%
    14:00 +23°C° 0 mm 6 mps 751 mmHg 49%
    15:00 +23°C° 0.3 mm 5 mps 751 mmHg 51%
    16:00 +22°C° 0.3 mm 5 mps 751 mmHg 54%
    17:00 +22°C° 0.3 mm 5 mps 750 mmHg 56%
    18:00 +20°C° 0.3 mm 4 mps 750 mmHg 63%
    19:00 +19°C° 0.3 mm 4 mps 750 mmHg 70%
    20:00 +17°C° 0.3 mm 3 mps 750 mmHg 77%
    21:00 +16°C° 0 mm 3 mps 750 mmHg 80%
    22:00 +15°C° 0 mm 4 mps 750 mmHg 83%
    23:00 +14°C° 0 mm 4 mps 750 mmHg 86%

    Tomorrow, 26 April, Friday

    Time Temperature Precipitation Wind Pressure Humidity
    00:00 +13°C° 0.1 mm 4 mps 750 mmHg 88%
    01:00 +13°C° 0.1 mm 3 mps 750 mmHg 91%
    02:00 +12°C° 0.1 mm 3 mps 750 mmHg 93%
    03:00 +12°C° 0.3 mm 3 mps 749 mmHg 94%
    04:00 +12°C° 0.3 mm 3 mps 749 mmHg 95%
    05:00 +11°C° 0.3 mm 3 mps 749 mmHg 96%
    06:00 +13°C° 0 mm 3 mps 749 mmHg 92%
    07:00 +14°C° 0 mm 4 mps 749 mmHg 88%
    08:00 +15°C° 0 mm 4 mps 749 mmHg 85%
    09:00 +18°C° 0 mm 4 mps 748 mmHg 77%
    10:00 +20°C° 0 mm 5 mps 748 mmHg 70%
    11:00 +22°C° 0 mm 5 mps 748 mmHg 63%
    12:00 +23°C° 0 mm 5 mps 747 mmHg 59%
    13:00 +25°C° 0 mm 5 mps 747 mmHg 55%
    14:00 +26°C° 0 mm 6 mps 746 mmHg 50%
    15:00 +26°C° 0.2 mm 5 mps 746 mmHg 53%
    16:00 +25°C° 0.2 mm 5 mps 746 mmHg 55%
    17:00 +25°C° 0.2 mm 5 mps 745 mmHg 58%
    18:00 +22°C° 0 mm 5 mps 745 mmHg 63%
    19:00 +21°C° 0 mm 4 mps 745 mmHg 68%
    20:00 +19°C° 0 mm 4 mps 745 mmHg 73%
    21:00 +18°C° 0.7 mm 4 mps 745 mmHg 78%
    22:00 +17°C° 0.7 mm 5 mps 745 mmHg 84%
    23:00 +16°C° 0.7 mm 5 mps 744 mmHg 90%

    Day after tomorrow, 27 April, Saturday

    Time Temperature Precipitation Wind Pressure Humidity
    00:00 +15°C° 0.2 mm 4 mps 744 mmHg 91%
    01:00 +15°C° 0.2 mm 4 mps 744 mmHg 92%
    02:00 +16°C° 0.2 mm 3 mps 744 mmHg 93%
    03:00 +14°C° 0.2 mm 3 mps 744 mmHg 93%
    04:00 +14°C° 0.2 mm 3 mps 743 mmHg 93%
    05:00 +14°C° 0.2 mm 3 mps 743 mmHg 93%
    06:00 +15°C° 0 mm 4 mps 743 mmHg 87%
    07:00 +17°C° 0 mm 4 mps 744 mmHg 80%
    08:00 +19°C° 0 mm 5 mps 744 mmHg 74%
    09:00 +19°C° 0 mm 5 mps 744 mmHg 74%
    10:00 +20°C° 0 mm 5 mps 744 mmHg 73%
    11:00 +20°C° 0 mm 6 mps 744 mmHg 73%
    12:00 +20°C° 0 mm 5 mps 744 mmHg 71%
    13:00 +21°C° 0 mm 5 mps 744 mmHg 68%
    14:00 +21°C° 0 mm 5 mps 744 mmHg 65%
    15:00 +21°C° 0 mm 5 mps 744 mmHg 66%
    16:00 +20°C° 0 mm 5 mps 744 mmHg 66%
    17:00 +20°C° 0 mm 5 mps 744 mmHg 67%
    18:00 +18°C° 0 mm 4 mps 744 mmHg 72%
    19:00 +17°C° 0 mm 3 mps 744 mmHg 78%
    20:00 +16°C° 0 mm 2 mps 744 mmHg 83%
    21:00 +15°C° 0 mm 2 mps 744 mmHg 86%
    22:00 +14°C° 0 mm 2 mps 744 mmHg 89%
    23:00 +14°C° 0 mm 2 mps 744 mmHg 92%

    28 April, Sunday

    Time Temperature Precipitation Wind Pressure Humidity
    00:00 +13°C° 0 mm 2 mps 744 mmHg 93%
    01:00 +13°C° 0 mm 2 mps 744 mmHg 94%
    02:00 +11°C° 0 mm 3 mps 744 mmHg 94%
    03:00 +12°C° 0 mm 2 mps 744 mmHg 95%
    04:00 +12°C° 0 mm 2 mps 744 mmHg 96%
    05:00 +12°C° 0 mm 2 mps 744 mmHg 97%
    06:00 +12°C° 0 mm 3 mps 744 mmHg 92%
    07:00 +12°C° 0 mm 3 mps 744 mmHg 87%
    08:00 +13°C° 0 mm 3 mps 744 mmHg 82%
    09:00 +14°C° 0.1 mm 3 mps 745 mmHg 78%
    10:00 +15°C° 0.1 mm 4 mps 745 mmHg 74%
    11:00 +17°C° 0.1 mm 4 mps 745 mmHg 70%
    12:00 +18°C° 0 mm 4 mps 745 mmHg 67%
    13:00 +19°C° 0 mm 4 mps 745 mmHg 65%
    14:00 +20°C° 0 mm 4 mps 745 mmHg 62%
    15:00 +20°C° 0.2 mm 4 mps 744 mmHg 65%
    16:00 +19°C° 0.2 mm 4 mps 744 mmHg 69%
    17:00 +19°C° 0.2 mm 4 mps 744 mmHg 72%
    18:00 +18°C° 0.8 mm 4 mps 744 mmHg 78%
    19:00 +17°C° 0.8 mm 4 mps 745 mmHg 83%
    20:00 +15°C° 0.8 mm 4 mps 745 mmHg 89%
    21:00 +15°C° 1.7 mm 5 mps 745 mmHg 90%
    22:00 +14°C° 1.7 mm 5 mps 745 mmHg 91%
    23:00 +14°C° 1.7 mm 6 mps 745 mmHg 92%

    29 April, Monday

    Time Temperature Precipitation Wind Pressure Humidity
    00:00 +13°C° 0.5 mm 6 mps 745 mmHg 92%
    01:00 +13°C° 0.5 mm 6 mps 745 mmHg 91%
    02:00 +11°C° 0.5 mm 6 mps 745 mmHg 91%
    03:00 +10°C° 0.4 mm 6 mps 746 mmHg 91%
    04:00 +10°C° 0.4 mm 6 mps 746 mmHg 91%
    05:00 +10°C° 0.4 mm 6 mps 746 mmHg 91%
    06:00 +9°C° 0.4 mm 6 mps 746 mmHg 90%
    07:00 +8°C° 0.4 mm 7 mps 747 mmHg 90%
    08:00 +6°C° 0.4 mm 7 mps 747 mmHg 89%
    09:00 +6°C° 1.3 mm 7 mps 747 mmHg 88%
    10:00 +5°C° 1.3 mm 7 mps 748 mmHg 87%
    11:00 +5°C° 1.3 mm 7 mps 748 mmHg 87%
    12:00 +6°C° 0.5 mm 7 mps 748 mmHg 84%
    13:00 +8°C° 0.5 mm 7 mps 748 mmHg 80%
    14:00 +9°C° 0.5 mm 7 mps 748 mmHg 77%
    15:00 +9°C° 0 mm 6 mps 748 mmHg 75%
    16:00 +9°C° 0 mm 6 mps 748 mmHg 73%
    17:00 +9°C° 0 mm 6 mps 748 mmHg 71%
    18:00 +9°C° 0 mm 5 mps 748 mmHg 70%
    19:00 +10°C° 0 mm 4 mps 749 mmHg 70%
    20:00 +8°C° 0 mm 4 mps 749 mmHg 70%
    21:00 +8°C° 0 mm 4 mps 749 mmHg 71%
    22:00 +7°C° 0 mm 4 mps 749 mmHg 73%
    23:00 +6°C° 0 mm 4 mps 749 mmHg 74%

    30 April, Tuesday

    Time Temperature Precipitation Wind Pressure Humidity
    00:00 +6°C° 0 mm 4 mps 749 mmHg 74%
    01:00 +5°C° 0 mm 4 mps 749 mmHg 74%
    02:00 +5°C° 0 mm 5 mps 749 mmHg 73%
    03:00 +5°C° 0 mm 5 mps 749 mmHg 73%
    04:00 +3°C° 0 mm 6 mps 749 mmHg 72%
    05:00 +3°C° 0 mm 6 mps 749 mmHg 72%
    06:00 +4°C° 0 mm 6 mps 749 mmHg 70%
    07:00 +4°C° 0 mm 7 mps 749 mmHg 69%
    08:00 +5°C° 0 mm 7 mps 749 mmHg 68%
    09:00 +6°C° 0 mm 7 mps 749 mmHg 68%
    10:00 +6°C° 0 mm 7 mps 749 mmHg 68%
    11:00 +8°C° 0 mm 7 mps 749 mmHg 67%
    12:00 +8°C° 0 mm 7 mps 749 mmHg 66%
    13:00 +9°C° 0 mm 7 mps 749 mmHg 66%
    14:00 +10°C° 0 mm 7 mps 749 mmHg 65%
    15:00 +9°C° 0 mm 7 mps 748 mmHg 65%
    16:00 +9°C° 0 mm 6 mps 748 mmHg 66%
    17:00 +9°C° 0 mm 6 mps 748 mmHg 67%
    18:00 +9°C° 0 mm 5 mps 748 mmHg 69%
    19:00 +8°C° 0 mm 4 mps 748 mmHg 71%
    20:00 +7°C° 0 mm 4 mps 748 mmHg 72%
    21:00 +7°C° 0 mm 4 mps 748 mmHg 73%
    22:00 +6°C° 0 mm 4 mps 748 mmHg 73%
    23:00 +6°C° 0 mm 4 mps 748 mmHg 73%
    Show more